sat.trackr.live / text

‹ back to catalog

STARLINK-36204

NORAD 68549 · 2026-070H

PAYLOAD ACTIVE UNKNOWN

§ Identity

Operator
Country
US
Launch date
2026-04-02
Launch site
AFETR
Launch vehicle
Mass (kg)
RCS (m²)

Purposes: comms

External: N2YO · Heavens-Above · Gunter

§ Orbital elements

Epoch: 2026-09-20T03:49:12.510048Z

Period
93.85 min
Inclination
53.1596°
Eccentricity
0.0000672
Mean motion
15.34404330 rev/d
Perigee alt
462.2 km
Apogee alt
463.2 km
Semi-major
6,840.8 km
B*
5.1709e-4
RAAN
175.4163°
Arg perigee
93.7626°
Mean anomaly
266.3453°
Rev number
2,638

§ Raw data

STARLINK-362041 68549U 26070H   26263.15917257  .00017137  00000+0  51709-3 0  99962 68549  53.1596 175.4163 0000672  93.7626 266.3453 15.34404330 26383

JSON: /api/v1/satellites/68549 · /tle

For live sub-satellite position, see the globe view (requires WebGL).

§ Visibility from observer

Set your observer location to see the next 7 days of passes ≥ 10°. The values pass through the URL so the page stays shareable.

No JS? Fill the form by hand. The geolocation button needs JavaScript.